ギャラッド彗星

P/2007 H3 ( Garradd )

English version
Home page
Updated on April 4, 2008

---------------------------------------------------------------------

・ プロフィール

発見日 2007年4月22日
発見光度 17.4等
発見者 G. J. Garradd (Siding Spring)

・ 軌道要素

Epoch 2007 Aug. 8.0 TT = JDT 2454320.5
T 2007 Aug. 15.32802 TT                                 MPC
q   1.8293147            (2000.0)            P               Q
n   0.15042863     Peri.  350.14668     -0.26271457     +0.86700207
a   3.5014590      Node   263.65746     -0.85372343     -0.41335587
e   0.4775564      Incl.   25.21602     -0.44959688     +0.27828822
P   6.55

・ 星図

・ 光度変化

        m1 = 14.0 + 5 logΔ + 10.0 log r

---------------------------------------------------------------------

軌道要素はM.P.E.C. 2007-O21に掲載されたものです。
星図は StellaNavigator Ver.2.0 for Windows (アストロアーツ 編著 / アスキー出版局刊) で作成したものです。
光度グラフはComet for Windowsで作成したものです。

---------------------------------------------------------------------

Copyright(C) Seiichi Yoshida (comet@aerith.net). All rights reserved.